Regional Weather Roundup
Issued by NWS

Home | Current Version | Previous Version | Text Only | Print | Product List | Glossary On
Versions: 1 2 3 4 5 6 7 8 9 10 11 12 13 14 15 16 17 18 19 20 21 22 23 24 25 26 27 28
000
ASUS45 KBOU 251110
RWRCO

WEATHER ROUNDUP FOR COLORADO
NATIONAL WEATHER SERVICE DENVER/BOULDER CO
500 AM MDT SUN SEP 25 2016

NOTE: "FAIR" INDICATES FEW OR NO CLOUDS BELOW 12000 FEET WITH NO
SIGNIFICANT WEATHER AND/OR OBSTRUCTIONS TO VISIBILITY.

COZ001>005-013-030-031-251200-
...NORTHWEST COLORADO...

CITY           SKY/WX    TMP DP  RH WIND       PRES   REMARKS
CRAIG          FOG       38  36  92 CALM      30.47R VSB 1/4
HAYDEN         FAIR      36  32  87 CALM      30.47R
MEEKER         FAIR      35  34  96 CALM      30.47R
MOUNT WERNER   NOT AVBL
STEAMBOAT SPGS CLOUDY    38  38  98 CALM      30.46S
WALDEN           N/A     36  34  93 CALM      30.50R
$$

COZ006>008-011-251200-
...WEST CENTRAL VALLEYS...

CITY           SKY/WX    TMP DP  RH WIND       PRES   REMARKS
GRAND JUNCTION FAIR      42  38  85 NW5       30.40R
MONTROSE       FAIR      41  38  89 S5        30.43S
EAGLE          CLOUDY    39  39 100 E6        30.49R
RIFLE          FAIR      42  40  92 CALM      30.44R
DELTA          NOT AVBL
NUCLA          FAIR      43  36  75 SE5       30.42S
$$

COZ017>023-064>068-251200-
...SOUTHWEST COLORADO...

CITY           SKY/WX    TMP DP  RH WIND       PRES   REMARKS
DURANGO        FAIR      38  30  73 N6        30.33R
CORTEZ         FAIR      36  33  89 E6        30.32S
PAGOSA SPRINGS FAIR      40  28  61 NW3       30.38S
TELLURIDE      FAIR      33  31  90 CALM      30.46F
WOLF CREEK PAS FAIR      27  23  86 MISG      30.56S
$$

COZ009-010-012-014-032>034-037-058>063-251200-
...CENTRAL COLORADO...

CITY           SKY/WX    TMP DP  RH WIND       PRES   REMARKS
ASPEN          FAIR      36  34  92 SW5       30.47R
BUENA VISTA    FAIR      33  25  73 E3        30.46R
COPPER MTN     HAZE      32  28  86 MISG      30.56R VSB 1/4
BERTHOUD PASS  CLOUDY    21   9  58 NW9       30.56R WCI  11
COTTONWOOD PAS FAIR      39  25  56 W3        30.50R
GUNNISON       FAIR      32  29  88 CALM      30.47R
KREMMLING      MOCLDY    37  32  81 CALM      30.49R
LEADVILLE      FAIR      29  26  89 N6        30.49R WCI  23
SALIDA         FAIR      34  28  77 W8        30.53R WCI  27
SUNLIGHT       CLOUDY    32  32 100 MISG      30.58R
WILKERSON PASS FAIR      28  27  93 SE6       30.57R WCI  22
$$

COZ069>075-251200-
...SAN LUIS VALLEY/SANGRE DE CRISTO MOUNTAINS...

CITY           SKY/WX    TMP DP  RH WIND       PRES   REMARKS
ALAMOSA        FAIR      32  28  85 NE6       30.42R WCI  26
LA VETA PASS   FAIR      32  28  86 MISG      30.51R
SAGUACHE       NOT AVBL
$$

COZ035-036-038>040-251200-
...NORTHERN COLORADO FRONT RANGE...

CITY           SKY/WX    TMP DP  RH WIND       PRES   REMARKS
DENVER INTL AP MOCLDY    42  32  67 S6        30.39R
DMNS CITY PARK NOT AVBL
AURORA         MOCLDY    43  34  70 S7        30.40R
FRONT RANGE AP FAIR      41  32  70 S6        30.40R
ERIE MUNI ARPT CLOUDY    51  35  55 S8        30.38R
BOULDER MUN AP CLOUDY    50  36  57 CALM      30.38R
CENTENNIAL     MOCLDY    43  32  65 S6        30.40R
BROOMFIELD     CLOUDY    50  36  57 S3        30.40R
FORT COLLINS   CLOUDY    52  34  50 NW6       30.38R
LONGMONT       CLOUDY    52  38  60 CALM      30.39R
$$

COZ041-046-047-076>085-087-088-251200-
...PIKES PEAK/PALMER DIVIDE AND SOUTHERN FOOTHILLS...

CITY           SKY/WX    TMP DP  RH WIND       PRES   REMARKS
COLO. SPRINGS  MOCLDY    49  32  52 NW10      30.42R
A. F. ACADEMY  FAIR      40  31  69 N9        30.41S
SCHRIEVER AFB  NOT AVBL
ELLICOTT       NOT AVBL
FALCON         CLOUDY    44  32  63 N10G18    30.42S
FORT CARSON    CLOUDY    50  32  49 N14       30.38R
LIMON          CLOUDY    47  35  63 N13       30.38R
MONUMENT HILL  CLOUDY    37  32  81 N3        30.45R
TRINIDAD       FAIR      42  30  62 W6        30.41R
$$

COZ042>045-048>051-090-091-251200-
...NORTHEAST COLORADO...

CITY           SKY/WX    TMP DP  RH WIND       PRES   REMARKS
GREELEY ARPT   CLOUDY    52  34  50 N10G23    30.37R
AKRON          FAIR      43  35  73 NW14      30.35R
BURLINGTON     FAIR      44  38  79 NW8       30.31S
WRAY           NOT AVBL
STERLING       FAIR      37  34  87 S3        30.35R
HOLYOKE        FAIR      48  37  66 NW12      30.31R
FORT MORGAN    MOCLDY    45  35  66 NW8       30.37R
$$

COZ086-089-092>099-251200-
...SOUTHEAST COLORADO...

CITY           SKY/WX    TMP DP  RH WIND       PRES   REMARKS
PUEBLO         FAIR      53  33  46 N5        30.36R
LA JUNTA       FAIR      50  35  56 NW3       30.35R
LAMAR          FAIR      51  38  60 N3        30.30R
SPRINGFIELD    NOT AVBL
$$




USA.gov is the U.S. government's official web portal to all federal, state and local government web resources and services.